Farrell Flat Airport

Jump to: basic info | weather | frequencies | runways | comments

Related pages: nearby airports | nearby navaids | notams | map

Basic information (top)

Codes: YFFT
Location: lon -33.833302, lat 138.766998
Status: small_airport

Weather (top)

Current conditions for Adelaide International Airport 68nm (125km) S (rec'd 2014/08/02 02:00Z):

YPAD 020200Z 36007KT 9999 FEW044 BKN260 11/04 Q1032 NOSIG

Airport forecast for Adelaide International Airport 68nm (125km) S (rec'd 2014/08/01 00:33Z):

TAF YPAD 012301Z 0200/0306 04006KT CAVOK 
     FM020200 VRB05KT CAVOK 
     FM021400 04006KT CAVOK

Frequencies (top)

Verify before use: may be inaccurate or out of date.

CTAF: 122.4 MHz (CTAF)
MISC: 114.2 MHz (MISC)
MISC: 119.8 MHz (MISC)
MISC: 121.3 MHz (MISC)

Runways (top)

03/21: 1,443 ft (440 m) — grass — not lighted

14/32: 2,486 ft (758 m) — grass — not lighted

Latest comments (top)

No comments yet for Farrell Flat Airport

More... (top)

See also NOTAMs and nearby airports and navaids, or visit the Farrell Flat Airport page at the main OurAirports website..